| time (UTC) | temp C | wind direction | speed KPH | gust KPH | rain 1hr cm | rain 24hr cm | rain mn cm | humidity % | barometer mb |
| 20260510190500 | 25 | 215 | 8.0 | 19.3 | 0.00 | 0.00 | 0.00 | 46 | 1012.8 |
| 20260510190233 | 25 | 271 | 9.7 | 19.3 | 0.00 | 0.00 | 0.00 | 48 | 1012.7 |
| 20260510185500 | 25 | 267 | 12.9 | 22.5 | 0.00 | 0.00 | 0.00 | 48 | 1012.8 |
| 20260510184959 | 25 | 297 | 11.3 | 22.5 | 0.00 | 0.00 | 0.00 | 48 | 1012.9 |
| 20260510184502 | 25 | 284 | 11.3 | 22.5 | 0.00 | 0.00 | 0.00 | 49 | 1012.9 |
| 20260510184233 | 25 | 239 | 11.3 | 22.5 | 0.00 | 0.00 | 0.00 | 48 | 1012.9 |
| 20260510183501 | 25 | 249 | 8.0 | 20.9 | 0.00 | 0.00 | 0.00 | 48 | 1012.8 |
| 20260510182959 | 25 | 246 | 6.4 | 19.3 | 0.00 | 0.00 | 0.00 | 49 | 1012.7 |
| 20260510182459 | 25 | 283 | 8.0 | 19.3 | 0.00 | 0.00 | 0.00 | 50 | 1012.7 |
| 20260510182000 | 25 | 281 | 8.0 | 19.3 | 0.00 | 0.00 | 0.00 | 50 | 1012.7 |
| 20260510181954 | 25 | 294 | 6.4 | 16.1 | 0.00 | 0.00 | 0.00 | 50 | 1012.7 |
| 20260510180947 | 25 | 281 | 6.4 | 14.5 | 0.00 | 0.00 | 0.00 | 49 | 1012.8 |
| 20260510180710 | 25 | 346 | 4.8 | 12.9 | 0.00 | 0.00 | 0.00 | 50 | 1012.8 |
| 20260510175934 | 25 | 209 | 4.8 | 12.9 | 0.00 | 0.00 | 0.00 | 47 | 1012.7 |
| 20260510175428 | 25 | 199 | 4.8 | 12.9 | 0.00 | 0.00 | 0.00 | 48 | 1012.7 |
| 20260510175153 | 26 | 0 | 8.0 | 25.7 | 0.00 | 0.00 | 0.00 | 46 | 1012.8 |
| 20260510174416 | 26 | 294 | 9.7 | 25.7 | 0.00 | 0.00 | 0.00 | 52 | 1012.7 |
| 20260510173910 | 26 | 318 | 8.0 | 25.7 | 0.00 | 0.00 | 0.00 | 50 | 1012.5 |
| 20260510173635 | 25 | 137 | 8.0 | 25.7 | 0.00 | 0.00 | 0.00 | 50 | 1012.6 |
| 20260510172912 | 25 | 98 | 6.4 | 16.1 | 0.00 | 0.00 | 0.00 | 49 | 1012.7 |
| 20260510172351 | 25 | 101 | 6.4 | 16.1 | 0.00 | 0.00 | 0.00 | 53 | 1012.7 |
| 20260510171848 | 25 | 146 | 6.4 | 16.1 | 0.00 | 0.00 | 0.00 | 50 | 1012.7 |
| 20260510171348 | 25 | 101 | 4.8 | 16.1 | 0.00 | 0.00 | 0.00 | 51 | 1012.7 |
| 20260510170848 | 25 | 102 | 3.2 | 16.1 | 0.00 | 0.00 | 0.00 | 52 | 1012.7 |
| 20260510170350 | 25 | 98 | 4.8 | 12.9 | 0.00 | 0.00 | 0.00 | 53 | 1012.8 |
| 20260510165847 | 24 | 161 | 6.4 | 12.9 | 0.00 | 0.00 | 0.00 | 55 | 1012.9 |
| 20260510165349 | 24 | 171 | 6.4 | 14.5 | 0.00 | 0.00 | 0.00 | 56 | 1012.9 |
| 20260510164848 | 24 | 101 | 6.4 | 14.5 | 0.00 | 0.00 | 0.00 | 56 | 1012.9 |
| 20260510164618 | 23 | 81 | 6.4 | 11.3 | 0.00 | 0.00 | 0.00 | 58 | 1012.9 |
| 20260510163855 | 23 | 142 | 6.4 | 12.9 | 0.00 | 0.00 | 0.00 | 58 | 1012.9 |
| 20260510163347 | 23 | 125 | 6.4 | 14.5 | 0.00 | 0.00 | 0.00 | 60 | 1013.0 |
| 20260510162848 | 23 | 140 | 6.4 | 14.5 | 0.00 | 0.00 | 0.00 | 58 | 1013.1 |
| 20260510162349 | 23 | 130 | 4.8 | 12.9 | 0.00 | 0.00 | 0.00 | 61 | 1013.0 |
| 20260510161845 | 23 | 194 | 6.4 | 12.9 | 0.00 | 0.00 | 0.00 | 60 | 1013.0 |
| 20260510161344 | 23 | 143 | 6.4 | 12.9 | 0.00 | 0.00 | 0.00 | 61 | 1012.9 |
| 20260510160844 | 23 | 126 | 6.4 | 12.9 | 0.00 | 0.00 | 0.00 | 62 | 1012.9 |
| 20260510160616 | 22 | 114 | 6.4 | 11.3 | 0.00 | 0.00 | 0.00 | 62 | 1013.0 |
| 20260510155845 | 22 | 184 | 4.8 | 11.3 | 0.00 | 0.00 | 0.00 | 63 | 1013.1 |
| 20260510155339 | 22 | 168 | 4.8 | 11.3 | 0.00 | 0.00 | 0.00 | 64 | 1013.1 |
| 20260510154835 | 22 | 148 | 4.8 | 11.3 | 0.00 | 0.00 | 0.00 | 66 | 1013.1 |
| 20260510154328 | 21 | 155 | 4.8 | 11.3 | 0.00 | 0.00 | 0.00 | 65 | 1013.1 |
| 20260510153822 | 21 | 105 | 3.2 | 11.3 | 0.00 | 0.00 | 0.00 | 66 | 1013.2 |
| 20260510153546 | 21 | 44 | 3.2 | 9.7 | 0.00 | 0.00 | 0.00 | 68 | 1013.3 |
| 20260510152810 | 20 | 96 | 4.8 | 9.7 | 0.00 | 0.00 | 0.00 | 68 | 1013.3 |
| 20260510152306 | 20 | 159 | 3.2 | 9.7 | 0.00 | 0.00 | 0.00 | 71 | 1013.3 |
| 20260510151758 | 20 | 78 | 3.2 | 8.0 | 0.00 | 0.00 | 0.00 | 75 | 1013.4 |
| 20260510151252 | 19 | 338 | 3.2 | 9.7 | 0.00 | 0.00 | 0.00 | 73 | 1013.4 |
| 20260510151017 | 18 | 322 | 3.2 | 9.7 | 0.00 | 0.00 | 0.00 | 72 | 1013.5 |
| 20260510150239 | 18 | 165 | 4.8 | 9.7 | 0.00 | 0.00 | 0.00 | 74 | 1013.5 |
| 20260510145733 | 18 | 92 | 4.8 | 9.7 | 0.00 | 0.00 | 0.00 | 76 | 1013.5 |
| 20260510145227 | 18 | 113 | 4.8 | 11.3 | 0.00 | 0.00 | 0.00 | 77 | 1013.5 |
| 20260510144722 | 17 | 168 | 3.2 | 11.3 | 0.00 | 0.00 | 0.00 | 78 | 1013.5 |
| 20260510144215 | 17 | 153 | 3.2 | 9.7 | 0.00 | 0.00 | 0.00 | 78 | 1013.4 |
| 20260510143710 | 17 | 155 | 4.8 | 12.9 | 0.00 | 0.00 | 0.00 | 79 | 1013.6 |
| 20260510143204 | 17 | 138 | 3.2 | 12.9 | 0.00 | 0.00 | 0.00 | 79 | 1013.4 |
| 20260510142657 | 17 | 128 | 1.6 | 9.7 | 0.00 | 0.00 | 0.00 | 82 | 1013.5 |
| 20260510142151 | 16 | 18 | 3.2 | 6.4 | 0.00 | 0.00 | 0.00 | 82 | 1013.5 |
| 20260510141645 | 16 | 175 | 3.2 | 6.4 | 0.00 | 0.00 | 0.00 | 81 | 1013.5 |
| 20260510141139 | 16 | 85 | 3.2 | 9.7 | 0.00 | 0.00 | 0.00 | 83 | 1013.5 |
| 20260510140636 | 16 | 107 | 4.8 | 9.7 | 0.00 | 0.00 | 0.00 | 83 | 1013.5 |
| 20260510140629 | 16 | 136 | 3.2 | 9.7 | 0.00 | 0.00 | 0.00 | 84 | 1013.5 |
| 20260510135621 | 15 | 76 | 3.2 | 6.4 | 0.00 | 0.00 | 0.00 | 86 | 1013.5 |
| 20260510135115 | 15 | 106 | 1.6 | 6.4 | 0.00 | 0.00 | 0.00 | 86 | 1013.5 |
| 20260510134609 | 15 | 76 | 1.6 | 6.4 | 0.00 | 0.00 | 0.00 | 87 | 1013.4 |
| 20260510134103 | 15 | 107 | 1.6 | 6.4 | 0.00 | 0.00 | 0.00 | 88 | 1013.4 |
| 20260510133557 | 14 | 107 | 3.2 | 6.4 | 0.00 | 0.00 | 0.00 | 88 | 1013.3 |
| 20260510133323 | 14 | 92 | 3.2 | 6.4 | 0.00 | 0.00 | 0.00 | 89 | 1013.3 |
| 20260510132545 | 14 | 50 | 3.2 | 6.4 | 0.00 | 0.00 | 0.00 | 89 | 1013.3 |
| 20260510132040 | 13 | 46 | 1.6 | 4.8 | 0.00 | 0.00 | 0.00 | 91 | 1013.5 |
| 20260510131533 | 13 | 355 | 1.6 | 4.8 | 0.00 | 0.00 | 0.00 | 91 | 1013.5 |
| 20260510131027 | 13 | 71 | 0.0 | 6.4 | 0.00 | 0.00 | 0.00 | 92 | 1013.5 |
| 20260510130524 | 13 | 267 | 1.6 | 6.4 | 0.00 | 0.00 | 0.00 | 92 | 1013.5 |
| 20260510130517 | 13 | 267 | 1.6 | 6.4 | 0.00 | 0.00 | 0.00 | 91 | 1013.6 |
| 20260510125509 | 13 | 267 | 1.6 | 6.4 | 0.00 | 0.00 | 0.00 | 92 | 1013.7 |
| 20260510125003 | 12 | 304 | 1.6 | 4.8 | 0.00 | 0.00 | 0.00 | 94 | 1013.5 |
| 20260510124728 | 12 | 157 | 1.6 | 4.8 | 0.00 | 0.00 | 0.00 | 94 | 1013.4 |
| 20260510123951 | 12 | 157 | 1.6 | 4.8 | 0.00 | 0.00 | 0.00 | 93 | 1013.3 |
| 20260510123446 | 12 | 157 | 1.6 | 4.8 | 0.00 | 0.00 | 0.00 | 94 | 1013.2 |
| 20260510122939 | 12 | 157 | 3.2 | 9.7 | 0.00 | 0.00 | 0.00 | 93 | 1013.2 |
| 20260510122433 | 12 | 157 | 3.2 | 9.7 | 0.00 | 0.00 | 0.00 | 94 | 1013.0 |
| 20260510121927 | 12 | 136 | 1.6 | 4.8 | 0.00 | 0.00 | 0.00 | 94 | 1013.1 |
| 20260510121421 | 12 | 136 | 3.2 | 9.7 | 0.00 | 0.00 | 0.00 | 95 | 1013.0 |
| 20260510120915 | 12 | 136 | 3.2 | 9.7 | 0.00 | 0.00 | 0.00 | 94 | 1012.9 |
| 20260510120641 | 12 | 21 | 3.2 | 8.0 | 0.00 | 0.00 | 0.00 | 95 | 1013.2 |
| 20260510115903 | 11 | 290 | 1.6 | 6.4 | 0.00 | 0.00 | 0.00 | 94 | 1013.2 |
| 20260510115357 | 11 | 212 | 1.6 | 4.8 | 0.00 | 0.00 | 0.00 | 94 | 1013.1 |
| 20260510114851 | 11 | 63 | 3.2 | 6.4 | 0.00 | 0.00 | 0.00 | 94 | 1012.9 |
| 20260510114346 | 11 | 63 | 3.2 | 6.4 | 0.00 | 0.00 | 0.00 | 94 | 1012.8 |
| 20260510113839 | 11 | 34 | 3.2 | 6.4 | 0.00 | 0.00 | 0.00 | 95 | 1012.8 |
| 20260510113333 | 11 | 0 | 3.2 | 8.0 | 0.00 | 0.00 | 0.00 | 95 | 1012.7 |
| 20260510112828 | 11 | 355 | 6.4 | 9.7 | 0.00 | 0.00 | 0.00 | 95 | 1012.8 |
| 20260510112321 | 11 | 342 | 6.4 | 11.3 | 0.00 | 0.00 | 0.00 | 95 | 1012.7 |
| 20260510111815 | 11 | 0 | 4.8 | 11.3 | 0.00 | 0.00 | 0.00 | 95 | 1012.8 |
| 20260510111311 | 11 | 5 | 3.2 | 8.0 | 0.00 | 0.00 | 0.00 | 96 | 1012.7 |
| 20260510110811 | 11 | 5 | 1.6 | 6.4 | 0.00 | 0.00 | 0.00 | 95 | 1012.6 |
| 20260510110310 | 11 | 5 | 1.6 | 6.4 | 0.00 | 0.00 | 0.00 | 95 | 1012.5 |
| 20260510105810 | 11 | 5 | 3.2 | 9.7 | 0.00 | 0.00 | 0.00 | 95 | 1012.4 |
| 20260510105309 | 11 | 5 | 3.2 | 9.7 | 0.00 | 0.00 | 0.00 | 95 | 1012.2 |
| 20260510104808 | 11 | 20 | 3.2 | 9.7 | 0.00 | 0.00 | 0.00 | 95 | 1012.2 |
| 20260510104309 | 11 | 38 | 4.8 | 9.7 | 0.00 | 0.00 | 0.00 | 95 | 1012.2 |
| 20260510103808 | 11 | 13 | 4.8 | 9.7 | 0.00 | 0.00 | 0.00 | 95 | 1012.1 |
| 20260510103307 | 11 | 5 | 3.2 | 9.7 | 0.00 | 0.00 | 0.00 | 95 | 1012.2 |
| 20260510102807 | 11 | 350 | 3.2 | 9.7 | 0.00 | 0.00 | 0.00 | 95 | 1012.0 |
| 20260510102541 | 10 | 355 | 1.6 | 8.0 | 0.00 | 0.00 | 0.00 | 95 | 1012.1 |
| 20260510101807 | 10 | 16 | 1.6 | 4.8 | 0.00 | 0.00 | 0.00 | 95 | 1012.0 |
| 20260510101305 | 10 | 16 | 3.2 | 6.4 | 0.00 | 0.00 | 0.00 | 95 | 1011.9 |
| 20260510100804 | 10 | 16 | 3.2 | 6.4 | 0.00 | 0.00 | 0.00 | 95 | 1011.9 |
| 20260510100301 | 10 | 16 | 3.2 | 6.4 | 0.00 | 0.00 | 0.00 | 96 | 1012.0 |
| 20260510100033 | 10 | 16 | 4.8 | 9.7 | 0.00 | 0.00 | 0.00 | 96 | 1011.9 |
| 20260510095305 | 10 | 19 | 6.4 | 12.9 | 0.00 | 0.00 | 0.00 | 96 | 1012.0 |
| 20260510094759 | 10 | 22 | 6.4 | 12.9 | 0.00 | 0.00 | 0.00 | 95 | 1011.9 |
| 20260510094259 | 10 | 9 | 6.4 | 12.9 | 0.00 | 0.00 | 0.00 | 95 | 1011.8 |
| 20260510093755 | 10 | 340 | 6.4 | 12.9 | 0.00 | 0.00 | 0.00 | 96 | 1011.8 |
| 20260510093520 | 10 | 346 | 6.4 | 12.9 | 0.00 | 0.00 | 0.00 | 96 | 1011.8 |
| 20260510092742 | 10 | 13 | 6.4 | 12.9 | 0.00 | 0.00 | 0.00 | 96 | 1011.8 |
| 20260510092236 | 10 | 5 | 6.4 | 14.5 | 0.00 | 0.00 | 0.00 | 95 | 1011.8 |
| 20260510091730 | 10 | 321 | 11.3 | 24.1 | 0.00 | 0.00 | 0.00 | 95 | 1011.9 |
| 20260510091224 | 10 | 20 | 9.7 | 24.1 | 0.00 | 0.00 | 0.00 | 95 | 1011.5 |
| 20260510090717 | 10 | 317 | 9.7 | 20.9 | 0.00 | 0.00 | 0.00 | 96 | 1011.9 |
| 20260510090211 | 10 | 338 | 11.3 | 20.9 | 0.00 | 0.00 | 0.00 | 96 | 1012.0 |
| 20260510085706 | 10 | 37 | 11.3 | 22.5 | 0.00 | 0.00 | 0.00 | 95 | 1011.5 |
| 20260510085437 | 10 | 355 | 9.7 | 22.5 | 0.00 | 0.00 | 0.00 | 95 | 1011.5 |
| 20260510084936 | 10 | 319 | 4.8 | 19.3 | 0.00 | 0.00 | 0.00 | 95 | 1011.8 |
| 20260510084204 | 10 | 5 | 1.6 | 6.4 | 0.00 | 0.00 | 0.00 | 95 | 1011.4 |
| 20260510083706 | 9 | 5 | 3.2 | 6.4 | 0.00 | 0.00 | 0.00 | 95 | 1011.4 |
| 20260510083206 | 10 | 5 | 4.8 | 8.0 | 0.00 | 0.00 | 0.00 | 94 | 1011.2 |
| 20260510082935 | 10 | 5 | 4.8 | 8.0 | 0.00 | 0.00 | 0.00 | 94 | 1011.1 |
| 20260510082204 | 10 | 5 | 4.8 | 8.0 | 0.00 | 0.00 | 0.00 | 94 | 1011.1 |
| 20260510081703 | 10 | 5 | 4.8 | 6.4 | 0.00 | 0.00 | 0.00 | 94 | 1011.1 |
| 20260510081205 | 10 | 5 | 1.6 | 6.4 | 0.00 | 0.00 | 0.00 | 94 | 1011.3 |
| 20260510080700 | 10 | 5 | 1.6 | 4.8 | 0.00 | 0.00 | 0.00 | 94 | 1011.3 |
| 20260510080202 | 10 | 5 | 3.2 | 9.7 | 0.00 | 0.00 | 0.00 | 94 | 1011.2 |
| 20260510075927 | 10 | 5 | 3.2 | 9.7 | 0.00 | 0.00 | 0.00 | 94 | 1011.1 |
| 20260510075158 | 10 | 5 | 4.8 | 11.3 | 0.00 | 0.00 | 0.00 | 94 | 1011.2 |
| 20260510074657 | 10 | 346 | 6.4 | 11.3 | 0.00 | 0.00 | 0.00 | 94 | 1011.3 |
| 20260510074156 | 10 | 346 | 6.4 | 9.7 | 0.00 | 0.00 | 0.00 | 94 | 1011.2 |
| 20260510073927 | 10 | 11 | 6.4 | 12.9 | 0.00 | 0.00 | 0.00 | 94 | 1011.0 |
| 20260510073429 | 10 | 5 | 6.4 | 14.5 | 0.00 | 0.00 | 0.00 | 94 | 1011.0 |
| 20260510072659 | 10 | 345 | 8.0 | 14.5 | 0.00 | 0.00 | 0.00 | 93 | 1010.9 |
| 20260510072158 | 10 | 350 | 6.4 | 9.7 | 0.00 | 0.00 | 0.00 | 93 | 1011.0 |
| 20260510071659 | 10 | 332 | 3.2 | 8.0 | 0.00 | 0.00 | 0.00 | 93 | 1010.8 |
| 20260510071154 | 10 | 335 | 1.6 | 8.0 | 0.00 | 0.00 | 0.00 | 93 | 1010.8 |
| 20260510070656 | 11 | 85 | 0.0 | 0.0 | 0.00 | 0.00 | 0.00 | 93 | 1010.7 |
| 20260510070154 | 11 | 85 | 0.0 | 0.0 | 0.00 | 0.00 | 0.00 | 93 | 1010.5 |
| 20260510065652 | 11 | 85 | 0.0 | 0.0 | 0.00 | 0.00 | 0.00 | 93 | 1010.6 |
| 20260510065154 | 11 | 85 | 0.0 | 0.0 | 0.00 | 0.00 | 0.00 | 93 | 1010.6 |
| 20260510064657 | 11 | 85 | 0.0 | 0.0 | 0.00 | 0.00 | 0.00 | 92 | 1010.7 |
| 20260510064653 | 11 | 85 | 0.0 | 0.0 | 0.00 | 0.00 | 0.00 | 93 | 1010.6 |
| 20260510063923 | 11 | 85 | 0.0 | 0.0 | 0.00 | 0.00 | 0.00 | 93 | 1010.7 |
| 20260510063153 | 11 | 85 | 0.0 | 0.0 | 0.00 | 0.00 | 0.00 | 93 | 1010.6 |
| 20260510062653 | 11 | 85 | 0.0 | 0.0 | 0.00 | 0.00 | 0.00 | 93 | 1010.7 |
| 20260510062153 | 11 | 85 | 0.0 | 0.0 | 0.00 | 0.00 | 0.00 | 93 | 1010.6 |
| 20260510061654 | 11 | 85 | 0.0 | 0.0 | 0.00 | 0.00 | 0.00 | 93 | 1010.7 |
| 20260510061154 | 11 | 85 | 0.0 | 0.0 | 0.00 | 0.00 | 0.00 | 93 | 1010.7 |
| 20260510060923 | 11 | 85 | 0.0 | 0.0 | 0.00 | 0.00 | 0.00 | 92 | 1010.6 |
| 20260510060153 | 11 | 85 | 0.0 | 0.0 | 0.00 | 0.00 | 0.00 | 92 | 1010.7 |
| 20260510055653 | 11 | 85 | 0.0 | 0.0 | 0.00 | 0.00 | 0.00 | 92 | 1010.8 |
| 20260510055424 | 11 | 85 | 0.0 | 0.0 | 0.00 | 0.00 | 0.00 | 92 | 1010.9 |
| 20260510054924 | 11 | 85 | 0.0 | 0.0 | 0.00 | 0.00 | 0.00 | 92 | 1010.8 |
| 20260510054147 | 11 | 85 | 0.0 | 0.0 | 0.00 | 0.00 | 0.00 | 92 | 1010.9 |
| 20260510053641 | 11 | 85 | 0.0 | 0.0 | 0.00 | 0.00 | 0.00 | 92 | 1011.0 |
| 20260510053135 | 11 | 85 | 0.0 | 0.0 | 0.00 | 0.00 | 0.00 | 92 | 1011.0 |
| 20260510052629 | 11 | 85 | 0.0 | 0.0 | 0.00 | 0.00 | 0.00 | 92 | 1011.0 |
| 20260510052123 | 11 | 85 | 0.0 | 0.0 | 0.00 | 0.00 | 0.00 | 92 | 1011.1 |
| 20260510051847 | 11 | 85 | 0.0 | 0.0 | 0.00 | 0.00 | 0.00 | 92 | 1011.1 |
| 20260510051111 | 11 | 85 | 0.0 | 0.0 | 0.00 | 0.00 | 0.00 | 92 | 1011.0 |
| 20260510050836 | 11 | 85 | 0.0 | 0.0 | 0.00 | 0.00 | 0.00 | 92 | 1011.1 |
| 20260510050058 | 11 | 85 | 0.0 | 0.0 | 0.00 | 0.00 | 0.00 | 92 | 1011.1 |
| 20260510045551 | 11 | 85 | 0.0 | 0.0 | 0.00 | 0.00 | 0.00 | 91 | 1011.2 |
| 20260510045045 | 11 | 85 | 0.0 | 0.0 | 0.00 | 0.00 | 0.00 | 92 | 1011.2 |
| 20260510044810 | 11 | 85 | 0.0 | 0.0 | 0.00 | 0.00 | 0.00 | 92 | 1011.3 |
| 20260510044033 | 11 | 85 | 0.0 | 0.0 | 0.00 | 0.00 | 0.00 | 91 | 1011.3 |
| 20260510043527 | 11 | 85 | 0.0 | 0.0 | 0.00 | 0.00 | 0.00 | 91 | 1011.3 |
| 20260510043253 | 12 | 85 | 0.0 | 0.0 | 0.00 | 0.00 | 0.00 | 91 | 1011.5 |
| 20260510042514 | 12 | 85 | 0.0 | 0.0 | 0.00 | 0.00 | 0.00 | 91 | 1011.4 |
| 20260510042009 | 12 | 85 | 0.0 | 0.0 | 0.00 | 0.00 | 0.00 | 91 | 1011.5 |
| 20260510041504 | 12 | 85 | 0.0 | 0.0 | 0.00 | 0.00 | 0.00 | 91 | 1011.4 |
| 20260510040957 | 12 | 85 | 0.0 | 0.0 | 0.00 | 0.00 | 0.00 | 91 | 1011.4 |
| 20260510040451 | 12 | 85 | 0.0 | 0.0 | 0.00 | 0.00 | 0.00 | 91 | 1011.6 |
| 20260510035945 | 12 | 85 | 0.0 | 0.0 | 0.00 | 0.00 | 0.00 | 91 | 1011.5 |
| 20260510035439 | 12 | 85 | 0.0 | 0.0 | 0.00 | 0.00 | 0.00 | 91 | 1011.4 |
| 20260510034933 | 12 | 85 | 0.0 | 0.0 | 0.00 | 0.00 | 0.00 | 91 | 1011.3 |
| 20260510034427 | 12 | 85 | 0.0 | 0.0 | 0.00 | 0.00 | 0.00 | 91 | 1011.2 |
| 20260510033921 | 12 | 85 | 0.0 | 0.0 | 0.00 | 0.00 | 0.00 | 91 | 1011.2 |
| 20260510033415 | 12 | 85 | 0.0 | 0.0 | 0.00 | 0.00 | 0.00 | 91 | 1011.1 |
| 20260510032908 | 12 | 85 | 0.0 | 0.0 | 0.00 | 0.00 | 0.00 | 91 | 1011.1 |
| 20260510032403 | 12 | 85 | 0.0 | 0.0 | 0.00 | 0.00 | 0.00 | 91 | 1011.1 |
| 20260510032128 | 12 | 86 | 0.0 | 0.0 | 0.00 | 0.00 | 0.00 | 91 | 1011.1 |
| 20260510031351 | 12 | 86 | 0.0 | 0.0 | 0.00 | 0.00 | 0.00 | 90 | 1011.0 |
| 20260510030845 | 12 | 86 | 0.0 | 0.0 | 0.00 | 0.00 | 0.00 | 90 | 1010.9 |
| 20260510030612 | 12 | 86 | 0.0 | 0.0 | 0.00 | 0.00 | 0.00 | 89 | 1010.9 |
| 20260510025832 | 12 | 86 | 0.0 | 0.0 | 0.00 | 0.00 | 0.00 | 90 | 1010.9 |
| 20260510025327 | 12 | 86 | 0.0 | 0.0 | 0.00 | 0.00 | 0.00 | 89 | 1011.0 |
| 20260510025052 | 12 | 86 | 0.0 | 0.0 | 0.00 | 0.00 | 0.00 | 89 | 1011.1 |
| 20260510024314 | 12 | 86 | 0.0 | 0.0 | 0.00 | 0.00 | 0.00 | 89 | 1011.1 |
| 20260510023809 | 12 | 86 | 0.0 | 0.0 | 0.00 | 0.00 | 0.00 | 89 | 1011.0 |
| 20260510023533 | 12 | 86 | 0.0 | 0.0 | 0.00 | 0.00 | 0.00 | 89 | 1010.9 |
| 20260510023029 | 12 | 86 | 0.0 | 0.0 | 0.00 | 0.00 | 0.00 | 89 | 1011.0 |
| 20260510022251 | 12 | 86 | 0.0 | 0.0 | 0.00 | 0.00 | 0.00 | 89 | 1011.0 |
| 20260510021745 | 12 | 86 | 0.0 | 0.0 | 0.00 | 0.00 | 0.00 | 89 | 1011.0 |
| 20260510021239 | 13 | 86 | 0.0 | 0.0 | 0.00 | 0.00 | 0.00 | 88 | 1010.9 |
| 20260510020733 | 13 | 86 | 0.0 | 0.0 | 0.00 | 0.00 | 0.00 | 88 | 1010.9 |
| 20260510020226 | 13 | 86 | 0.0 | 1.6 | 0.00 | 0.00 | 0.00 | 88 | 1010.8 |
| 20260510015720 | 13 | 86 | 0.0 | 1.6 | 0.00 | 0.00 | 0.00 | 88 | 1010.8 |
| 20260510015215 | 13 | 86 | 0.0 | 3.2 | 0.00 | 0.00 | 0.00 | 88 | 1010.8 |
| 20260510014709 | 13 | 86 | 1.6 | 3.2 | 0.00 | 0.00 | 0.00 | 87 | 1010.8 |
| 20260510014203 | 13 | 86 | 0.0 | 3.2 | 0.00 | 0.00 | 0.00 | 87 | 1010.7 |
| 20260510013657 | 13 | 86 | 0.0 | 3.2 | 0.00 | 0.00 | 0.00 | 87 | 1010.8 |
| 20260510013151 | 13 | 86 | 0.0 | 3.2 | 0.00 | 0.00 | 0.00 | 87 | 1010.8 |
| 20260510012645 | 13 | 86 | 1.6 | 3.2 | 0.00 | 0.00 | 0.00 | 86 | 1010.7 |
| 20260510012151 | 13 | 86 | 0.0 | 1.6 | 0.00 | 0.00 | 0.00 | 86 | 1010.8 |
| 20260510012145 | 13 | 86 | 0.0 | 3.2 | 0.00 | 0.00 | 0.00 | 86 | 1010.9 |
| 20260510011141 | 13 | 86 | 0.0 | 1.6 | 0.00 | 0.00 | 0.00 | 86 | 1010.7 |
| 20260510010910 | 13 | 86 | 0.0 | 1.6 | 0.00 | 0.00 | 0.00 | 86 | 1010.6 |
| 20260510010136 | 13 | 86 | 0.0 | 3.2 | 0.00 | 0.00 | 0.00 | 85 | 1010.6 |
| 20260510005636 | 13 | 86 | 1.6 | 4.8 | 0.00 | 0.00 | 0.00 | 85 | 1010.5 |
| 20260510005143 | 13 | 86 | 1.6 | 4.8 | 0.00 | 0.00 | 0.00 | 85 | 1010.4 |
| 20260510005136 | 13 | 86 | 1.6 | 4.8 | 0.00 | 0.00 | 0.00 | 85 | 1010.5 |
| 20260510004132 | 13 | 86 | 1.6 | 4.8 | 0.00 | 0.00 | 0.00 | 85 | 1010.5 |
| 20260510003630 | 14 | 86 | 1.6 | 4.8 | 0.00 | 0.00 | 0.00 | 85 | 1010.5 |
| 20260510003127 | 14 | 86 | 1.6 | 4.8 | 0.00 | 0.00 | 0.00 | 85 | 1010.5 |
| 20260510002628 | 14 | 61 | 1.6 | 3.2 | 0.00 | 0.00 | 0.00 | 84 | 1010.6 |
| 20260510002128 | 14 | 61 | 1.6 | 3.2 | 0.00 | 0.00 | 0.00 | 84 | 1010.5 |
| 20260510001629 | 14 | 61 | 0.0 | 4.8 | 0.00 | 0.00 | 0.00 | 84 | 1010.5 |
| 20260510001130 | 14 | 61 | 1.6 | 4.8 | 0.00 | 0.00 | 0.00 | 84 | 1010.6 |
| 20260510000628 | 14 | 61 | 1.6 | 4.8 | 0.00 | 0.00 | 0.00 | 84 | 1010.5 |
| 20260510000129 | 14 | 61 | 3.2 | 4.8 | 0.00 | 0.00 | 0.00 | 83 | 1010.4 |
| 20260509235629 | 14 | 61 | 3.2 | 4.8 | 0.00 | 0.00 | 0.00 | 83 | 1010.4 |
| 20260509235129 | 14 | 61 | 1.6 | 4.8 | 0.00 | 0.00 | 0.00 | 83 | 1010.3 |
| 20260509234629 | 15 | 61 | 1.6 | 4.8 | 0.00 | 0.00 | 0.00 | 83 | 1010.5 |
| 20260509234126 | 15 | 61 | 3.2 | 6.4 | 0.00 | 0.00 | 0.00 | 82 | 1010.5 |
| 20260509233626 | 15 | 66 | 4.8 | 12.9 | 0.00 | 0.00 | 0.00 | 82 | 1010.4 |
| 20260509233127 | 15 | 89 | 6.4 | 12.9 | 0.00 | 0.00 | 0.00 | 82 | 1010.2 |
| 20260509232855 | 15 | 69 | 4.8 | 11.3 | 0.00 | 0.00 | 0.00 | 82 | 1010.1 |
| 20260509232124 | 15 | 80 | 4.8 | 11.3 | 0.00 | 0.00 | 0.00 | 82 | 1010.1 |
| 20260509231624 | 15 | 105 | 4.8 | 11.3 | 0.00 | 0.00 | 0.00 | 82 | 1010.1 |
| 20260509231123 | 15 | 105 | 4.8 | 11.3 | 0.00 | 0.00 | 0.00 | 82 | 1010.0 |
| 20260509230625 | 15 | 87 | 6.4 | 12.9 | 0.00 | 0.00 | 0.00 | 82 | 1010.0 |
| 20260509230123 | 15 | 116 | 6.4 | 12.9 | 0.00 | 0.00 | 0.00 | 82 | 1009.9 |
| 20260509225624 | 15 | 96 | 6.4 | 14.5 | 0.00 | 0.00 | 0.00 | 82 | 1009.8 |
| 20260509225124 | 15 | 92 | 6.4 | 14.5 | 0.00 | 0.00 | 0.00 | 82 | 1009.9 |
| 20260509224625 | 15 | 98 | 6.4 | 12.9 | 0.00 | 0.00 | 0.00 | 82 | 1010.1 |
| 20260509224122 | 15 | 79 | 6.4 | 14.5 | 0.00 | 0.00 | 0.00 | 82 | 1010.0 |
| 20260509223622 | 15 | 91 | 6.4 | 14.5 | 0.00 | 0.00 | 0.00 | 81 | 1010.3 |
| 20260509223122 | 15 | 91 | 4.8 | 12.9 | 0.00 | 0.00 | 0.00 | 81 | 1010.2 |
| 20260509222623 | 15 | 88 | 4.8 | 12.9 | 0.00 | 0.00 | 0.00 | 82 | 1010.2 |
| 20260509222121 | 15 | 74 | 4.8 | 12.9 | 0.00 | 0.00 | 0.00 | 81 | 1010.4 |
| 20260509221621 | 15 | 64 | 6.4 | 12.9 | 0.00 | 0.00 | 0.00 | 82 | 1010.4 |
| 20260509221122 | 15 | 40 | 6.4 | 12.9 | 0.00 | 0.00 | 0.00 | 82 | 1010.3 |
| 20260509220622 | 15 | 65 | 6.4 | 12.9 | 0.00 | 0.00 | 0.00 | 82 | 1010.2 |
| 20260509220123 | 15 | 56 | 4.8 | 12.9 | 0.00 | 0.00 | 0.00 | 81 | 1010.3 |
| 20260509215618 | 15 | 38 | 4.8 | 12.9 | 0.00 | 0.00 | 0.00 | 80 | 1010.4 |
| 20260509215118 | 15 | 74 | 4.8 | 11.3 | 0.00 | 0.00 | 0.00 | 81 | 1010.5 |
| 20260509214619 | 15 | 5 | 6.4 | 14.5 | 0.00 | 0.00 | 0.00 | 80 | 1010.6 |
| 20260509214118 | 15 | 0 | 4.8 | 14.5 | 0.00 | 0.00 | 0.00 | 80 | 1010.7 |
| 20260509213851 | 15 | 53 | 4.8 | 9.7 | 0.00 | 0.00 | 0.00 | 80 | 1010.7 |
| 20260509213118 | 15 | 5 | 3.2 | 11.3 | 0.00 | 0.00 | 0.00 | 81 | 1010.7 |
| 20260509212618 | 15 | 331 | 6.4 | 11.3 | 0.00 | 0.00 | 0.00 | 80 | 1010.7 |
| 20260509212118 | 15 | 81 | 6.4 | 16.1 | 0.00 | 0.00 | 0.00 | 79 | 1010.5 |
| 20260509211620 | 16 | 94 | 8.0 | 14.5 | 0.00 | 0.00 | 0.00 | 77 | 1010.8 |
| 20260509211118 | 16 | 59 | 8.0 | 16.1 | 0.00 | 0.00 | 0.00 | 76 | 1010.7 |
| 20260509210618 | 16 | 350 | 8.0 | 16.1 | 0.00 | 0.00 | 0.00 | 73 | 1011.0 |
| 20260509210119 | 16 | 342 | 8.0 | 16.1 | 0.00 | 0.00 | 0.00 | 73 | 1010.8 |
| 20260509205617 | 16 | 0 | 9.7 | 16.1 | 0.00 | 0.00 | 0.00 | 73 | 1010.5 |
| 20260509205119 | 16 | 340 | 8.0 | 16.1 | 0.00 | 0.00 | 0.00 | 74 | 1010.5 |
| 20260509204619 | 16 | 325 | 8.0 | 16.1 | 0.00 | 0.00 | 0.00 | 74 | 1010.5 |
| 20260509204117 | 16 | 355 | 9.7 | 17.7 | 0.00 | 0.00 | 0.00 | 74 | 1010.4 |
| 20260509203618 | 16 | 340 | 11.3 | 22.5 | 0.00 | 0.00 | 0.00 | 74 | 1010.4 |
| 20260509203350 | 16 | 320 | 11.3 | 22.5 | 0.00 | 0.00 | 0.00 | 74 | 1010.4 |
| 20260509202618 | 16 | 319 | 14.5 | 24.1 | 0.00 | 0.00 | 0.00 | 74 | 1010.2 |
| 20260509202118 | 16 | 334 | 14.5 | 24.1 | 0.00 | 0.00 | 0.00 | 74 | 1009.8 |
| 20260509201619 | 16 | 334 | 12.9 | 22.5 | 0.00 | 0.00 | 0.00 | 74 | 1010.0 |
| 20260509201119 | 16 | 310 | 12.9 | 22.5 | 0.00 | 0.00 | 0.00 | 73 | 1010.1 |
| 20260509200619 | 16 | 350 | 12.9 | 22.5 | 0.00 | 0.00 | 0.00 | 73 | 1010.3 |
| 20260509200119 | 16 | 342 | 12.9 | 22.5 | 0.00 | 0.00 | 0.00 | 73 | 1010.1 |
| 20260509195616 | 16 | 327 | 11.3 | 24.1 | 0.00 | 0.00 | 0.00 | 74 | 1010.3 |
| 20260509195116 | 16 | 348 | 11.3 | 24.1 | 0.00 | 0.00 | 0.00 | 76 | 1010.1 |
| 20260509194616 | 16 | 325 | 12.9 | 24.1 | 0.00 | 0.00 | 0.00 | 75 | 1010.4 |
| 20260509194115 | 16 | 350 | 12.9 | 25.7 | 0.00 | 0.00 | 0.00 | 75 | 1010.4 |
| 20260509193846 | 16 | 14 | 14.5 | 25.7 | 0.00 | 0.00 | 0.00 | 76 | 1010.6 |
| 20260509193115 | 16 | 344 | 17.7 | 27.4 | 0.00 | 0.00 | 0.00 | 74 | 1010.6 |
| 20260509192616 | 16 | 5 | 14.5 | 27.4 | 0.00 | 0.00 | 0.00 | 73 | 1010.7 |
| 20260509192116 | 16 | 322 | 11.3 | 22.5 | 0.00 | 0.00 | 0.00 | 74 | 1010.9 |
| 20260509191612 | 16 | 320 | 14.5 | 22.5 | 0.00 | 0.00 | 0.00 | 73 | 1010.8 |
| 20260509191104 | 16 | 348 | 14.5 | 22.5 | 0.00 | 0.00 | 0.00 | 74 | 1010.7 |